Regional Weather Roundup
Issued by NWS

Home | Current Version | Previous Version | Graphics & Text | Print | Product List | Glossary On
Versions: 1 2 3 4 5 6 7 8 9 10 11 12 13 14 15 16 17 18 19 20 21 22 23 24 25 26 27 28 29 30 31 32 33 34 35 36 37 38 39 40 41 42 43 44 45 46 47 48 49 50
000
ASUS43 KLMK 281710
RWRKY
KENTUCKY REGIONAL WEATHER ROUNDUP
NATIONAL WEATHER SERVICE LOUISVILLE KY
100 PM EDT TUE JUL 28 2015

NOTE "FAIR" INDICATES FEW OR NO CLOUDS BELOW 12,000 FEET
WITH NO SIGNIFICANT WEATHER AND/OR OBSTRUCTIONS TO VISIBILITY.

KYZ001>023-026-027-061>063-070>075-281800-
WESTERN AND SOUTH CENTRAL KENTUCKY

CITY           SKY/WX    TMP DP  RH WIND       PRES   REMARKS
PADUCAH        SUNNY     92  77  61 W6        29.98S HX 105
HENDERSON      MOSUNNY   90  77  66 SW6       29.97S HX 102
OWENSBORO      MOSUNNY   91  77  63 W3        30.00R HX 104
HOPKINSVILLE   MOSUNNY   90  77  66 W9        30.00S HX 103
BOWLING GREEN  CLOUDY    85  73  67 W17G23    30.02R HX  91
GLASGOW        MOSUNNY   90  74  59 SW8       30.01R HX 100
$$

KYZ024-025-028>034-038-045-046-053-281800-
NORTH CENTRAL KENTUCKY

CITY           SKY/WX    TMP DP  RH WIND       PRES   REMARKS
LOUISVILLE/SDF MOSUNNY   89  73  59 VRB6      29.98R HX  97
LOUISVILLE/LOU PTSUNNY   89  75  63 SW7       29.99R HX  99
FORT KNOX      MOSUNNY   89  76  66 VRB5      29.98F HX  99
$$

KYZ035>037-039>044-047>052-055>060-089>105-281800-
NORTHEAST KENTUCKY

CITY           SKY/WX    TMP DP  RH WIND       PRES   REMARKS
LEXINGTON      MOSUNNY   87  76  69 SW6       30.01S HX  97
COVINGTON      PTSUNNY   89  73  59 VRB5      30.00F HX  97
FRANKFORT      MOSUNNY   86  75  69 SW9       29.99S HX  95
$$

KYZ054-064>069-076>088-106>120-281800-
SOUTHEAST KENTUCKY

CITY           SKY/WX    TMP DP  RH WIND       PRES   REMARKS
JACKSON        MOSUNNY   84  72  67 CALM      30.03F
LONDON         MOSUNNY   88  70  55 SW7       30.03F HX  93
SOMERSET       MOSUNNY   86  72  62 W6        30.02F HX  92
MIDDLESBORO    MOSUNNY   82  76  81 SE3       30.04S
MONTICELLO     MOSUNNY   90  75  61 SW7       30.05S HX 100
$$



USA.gov is the U.S. government's official web portal to all federal, state and local government web resources and services.